20040125,000008,1659430,35.453667,-124.903000,NaN,14.008,32.692,39.459,  NaN,0.0, NaN, NaN, NaN, NaN, NaN,351.669,12.20,1018.59,91.20,NaN,322.0,NaN,6.9,NaN,312.1,NaN,6.0,NaN,NaN, NaN,NaN,154.0,NaN,NaN,NaN,2,1.4,000006,   NaN,349.4,     NaN,      NaN,NaN,-0.1,NaN,14.012, NaN,NaN,NaN, NaN, NaN

20040125,000038,1659460,35.453500,-124.902833,NaN,14.008,32.693,39.461,  NaN,0.0, NaN, NaN, NaN, NaN, NaN,351.620,12.20,1018.44,91.30,NaN,319.0,NaN,6.3,NaN,317.2,NaN,5.5,NaN,NaN, NaN,NaN,155.0,NaN,NaN,NaN,2,1.4,000036,   NaN,3.7,     NaN,      NaN,NaN,-0.1,NaN,14.012, NaN,NaN,NaN, NaN, NaN

20040125,000108,1659490,35.453333,-124.902833,NaN,14.008,32.692,39.459,  NaN,0.0, NaN, NaN, NaN, NaN, NaN,351.670,12.20,1018.54,90.90,NaN,300.0,NaN,6.1,NaN,311.3,NaN,5.2,NaN,NaN, NaN,NaN,159.0,NaN,NaN,NaN,2,1.8,000066,   NaN,20.2,     NaN,      NaN,NaN,-0.2,NaN,14.011, NaN,NaN,NaN, NaN, NaN

20040125,000138,1659520,35.453167,-124.902667,NaN,14.010,32.691,39.460,  NaN,0.0, NaN, NaN, NaN, NaN, NaN,351.756,12.20,1018.52,91.60,NaN,273.0,NaN,6.3,NaN,304.6,NaN,6.7,NaN,NaN, NaN,NaN,171.0,NaN,NaN,NaN,2,1.6,000096,   NaN,38.6,     NaN,      NaN,NaN,-0.1,NaN,14.013, NaN,NaN,NaN, NaN, NaN

20040125,000208,1659550,35.453000,-124.902667,NaN,14.010,32.693,39.462,  NaN,0.0, NaN, NaN, NaN, NaN, NaN,351.658,12.30,1018.66,91.30,NaN,268.0,NaN,6.2,NaN,314.6,NaN,6.6,NaN,NaN, NaN,NaN,169.0,NaN,NaN,NaN,2,1.4,000126,   NaN,51.5,     NaN,      NaN,NaN,-0.2,NaN,14.014, NaN,NaN,NaN, NaN, NaN

20040125,000238,1659580,35.452833,-124.902667,NaN,14.013,32.692,39.463,  NaN,0.0, NaN, NaN, NaN, NaN, NaN,351.787,12.20,1018.52,90.90,NaN,257.0,NaN,6.8,NaN,323.7,NaN,7.1,NaN,NaN, NaN,NaN,172.0,NaN,NaN,NaN,2,1.3,000156,   NaN,66.2,     NaN,      NaN,NaN,0.1,NaN,14.016, NaN,NaN,NaN, NaN, NaN

20040125,000308,1659610,35.452667,-124.902667,NaN,14.016,32.693,39.467,  NaN,0.0, NaN, NaN, NaN, NaN, NaN,351.750,12.20,1018.56,90.70,NaN,249.0,NaN,6.6,NaN,321.4,NaN,7.2,NaN,NaN, NaN,NaN,177.0,NaN,NaN,NaN,2,1.3,000186,   NaN,75.4,     NaN,      NaN,NaN,0.1,NaN,14.019, NaN,NaN,NaN, NaN, NaN

20040125,000338,1659640,35.452500,-124.902500,NaN,14.015,32.693,39.466,  NaN,0.0, NaN, NaN, NaN, NaN, NaN,351.752,12.30,1018.57,90.90,NaN,231.0,NaN,7.5,NaN,314.7,NaN,9.1,NaN,NaN, NaN,NaN,159.0,NaN,NaN,NaN,2,1.2,000216,   NaN,82.1,     NaN,      NaN,NaN,0.4,NaN,14.018, NaN,NaN,NaN, NaN, NaN

20040125,000408,1659670,35.452333,-124.902500,NaN,14.011,32.694,39.463,  NaN,0.0, NaN, NaN, NaN, NaN, NaN,351.631,12.30,1018.72,90.60,NaN,228.0,NaN,7.9,NaN,309.6,NaN,8.6,NaN,NaN, NaN,NaN,167.0,NaN,NaN,NaN,2,1.4,000246,   NaN,87.3,     NaN,      NaN,NaN,0.3,NaN,14.014, NaN,NaN,NaN, NaN, NaN

20040125,000438,1659700,35.452167,-124.902500,NaN,14.009,32.693,39.461,  NaN,0.0, NaN, NaN, NaN, NaN, NaN,351.618,12.30,1018.79,90.70,NaN,222.0,NaN,9.1,NaN,314.8,NaN,8.5,NaN,NaN, NaN,NaN,169.0,NaN,NaN,NaN,2,1.4,000276,   NaN,91.0,     NaN,      NaN,NaN,0.3,NaN,14.012, NaN,NaN,NaN, NaN, NaN

20040125,000508,1659730,35.452000,-124.902500,NaN,14.008,32.693,39.461,  NaN,0.0, NaN, NaN, NaN, NaN, NaN,351.619,12.30,1018.71,89.70,NaN,233.0,NaN,9.5,NaN,314.7,NaN,9.2,NaN,NaN, NaN,NaN,167.0,NaN,NaN,NaN,2,1.5,000306,   NaN,89.3,     NaN,      NaN,NaN,0.3,NaN,14.012, NaN,NaN,NaN, NaN, NaN

20040125,000538,1659760,35.451833,-124.902500,NaN,14.007,32.692,39.458,  NaN,0.0, NaN, NaN, NaN, NaN, NaN,351.650,12.20,1018.75,89.30,NaN,232.0,NaN,9.3,NaN,318.0,NaN,10.5,NaN,NaN, NaN,NaN,174.0,NaN,NaN,NaN,2,1.5,000336,   NaN,87.3,     NaN,      NaN,NaN,0.4,NaN,14.011, NaN,NaN,NaN, NaN, NaN

20040125,000608,1659790,35.451500,-124.902333,NaN,14.004,32.692,39.455,  NaN,0.0, NaN, NaN, NaN, NaN, NaN,351.599,12.20,1018.63,89.30,NaN,241.0,NaN,8.1,NaN,318.8,NaN,8.6,NaN,NaN, NaN,NaN,166.0,NaN,NaN,NaN,2,1.6,000366,   NaN,82.2,     NaN,      NaN,NaN,0.2,NaN,14.007, NaN,NaN,NaN, NaN, NaN

20040125,000638,1659820,35.451333,-124.902333,NaN,14.004,32.692,39.455,  NaN,0.0, NaN, NaN, NaN, NaN, NaN,351.597,12.20,1018.83,89.80,NaN,243.0,NaN,8.4,NaN,323.5,NaN,8.3,NaN,NaN, NaN,NaN,160.0,NaN,NaN,NaN,2,1.7,000396,   NaN,79.2,     NaN,      NaN,NaN,0.3,NaN,14.007, NaN,NaN,NaN, NaN, NaN

20040125,000708,1659850,35.451333,-124.902333,NaN,14.005,32.692,39.456,  NaN,0.0, NaN, NaN, NaN, NaN, NaN,351.636,12.30,1018.56,89.70,NaN,262.0,NaN,8.6,NaN,323.9,NaN,8.7,NaN,NaN, NaN,NaN,169.0,NaN,NaN,NaN,2,1.3,000426,   NaN,75.3,     NaN,      NaN,NaN,0.2,NaN,14.009, NaN,NaN,NaN, NaN, NaN

20040125,000738,1659880,35.451167,-124.902167,NaN,14.007,32.692,39.458,  NaN,0.0, NaN, NaN, NaN, NaN, NaN,351.649,12.20,1018.64,89.90,NaN,255.0,NaN,8.5,NaN,321.3,NaN,8.2,NaN,NaN, NaN,NaN,169.0,NaN,NaN,NaN,2,1.5,000456,   NaN,74.4,     NaN,      NaN,NaN,0.1,NaN,14.011, NaN,NaN,NaN, NaN, NaN

20040125,000808,1659910,35.450833,-124.902167,NaN,14.006,32.693,39.458,  NaN,0.0, NaN, NaN, NaN, NaN, NaN,351.606,12.30,1018.72,89.80,NaN,253.0,NaN,7.2,NaN,318.6,NaN,7.2,NaN,NaN, NaN,NaN,173.0,NaN,NaN,NaN,2,1.6,000486,   NaN,76.1,     NaN,      NaN,NaN,0.3,NaN,14.010, NaN,NaN,NaN, NaN, NaN

20040125,000838,1659940,35.450667,-124.902167,NaN,14.006,32.692,39.457,  NaN,0.0, NaN, NaN, NaN, NaN, NaN,351.608,12.30,1018.74,89.70,NaN,245.0,NaN,8.5,NaN,316.5,NaN,9.0,NaN,NaN, NaN,NaN,179.0,NaN,NaN,NaN,2,1.2,000516,   NaN,78.0,     NaN,      NaN,NaN,0.1,NaN,14.009, NaN,NaN,NaN, NaN, NaN

20040125,000908,1659970,35.450500,-124.902167,NaN,14.006,32.692,39.458,  NaN,0.0, NaN, NaN, NaN, NaN, NaN,351.608,12.30,1018.63,90.10,NaN,243.0,NaN,8.5,NaN,316.7,NaN,8.3,NaN,NaN, NaN,NaN,182.0,NaN,NaN,NaN,2,1.3,000546,   NaN,78.8,     NaN,      NaN,NaN,0.2,NaN,14.009, NaN,NaN,NaN, NaN, NaN

20040125,000938,1660000,35.450333,-124.902167,NaN,14.007,32.693,39.459,  NaN,0.0, NaN, NaN, NaN, NaN, NaN,351.624,12.30,1018.80,88.80,NaN,250.0,NaN,9.4,NaN,318.3,NaN,8.9,NaN,NaN, NaN,NaN,177.0,NaN,NaN,NaN,2,1.6,000576,   NaN,79.8,     NaN,      NaN,NaN,0.3,NaN,14.011, NaN,NaN,NaN, NaN, NaN

20040125,001008,1660030,35.450167,-124.902000,NaN,14.011,32.693,39.463,  NaN,0.0, NaN, NaN, NaN, NaN, NaN,351.677,12.30,1018.68,90.10,NaN,243.0,NaN,7.9,NaN,314.8,NaN,8.0,NaN,NaN, NaN,NaN,180.0,NaN,NaN,NaN,2,1.5,000606,   NaN,80.2,     NaN,      NaN,NaN,0.3,NaN,14.015, NaN,NaN,NaN, NaN, NaN

20040125,001038,1660060,35.450000,-124.902000,NaN,14.011,32.694,39.464,  NaN,0.0, NaN, NaN, NaN, NaN, NaN,351.629,12.30,1018.69,88.50,NaN,258.0,NaN,7.8,NaN,332.3,NaN,8.9,NaN,NaN, NaN,NaN,177.0,NaN,NaN,NaN,2,1.2,000636,   NaN,82.1,     NaN,      NaN,NaN,0.3,NaN,14.015, NaN,NaN,NaN, NaN, NaN

20040125,001108,1660090,35.449833,-124.902000,NaN,14.014,32.694,39.466,  NaN,0.0, NaN, NaN, NaN, NaN, NaN,351.664,12.30,1018.80,88.10,NaN,254.0,NaN,7.8,NaN,325.5,NaN,7.5,NaN,NaN, NaN,NaN,175.0,NaN,NaN,NaN,2,1.6,000666,   NaN,82.4,     NaN,      NaN,NaN,0.2,NaN,14.017, NaN,NaN,NaN, NaN, NaN

20040125,001138,1660120,35.449667,-124.902000,NaN,14.015,32.694,39.468,  NaN,0.0, NaN, NaN, NaN, NaN, NaN,351.659,12.30,1018.52,87.80,NaN,245.0,NaN,7.5,NaN,314.8,NaN,7.2,NaN,NaN, NaN,NaN,164.0,NaN,NaN,NaN,2,1.5,000696,   NaN,81.8,     NaN,      NaN,NaN,0.4,NaN,14.018, NaN,NaN,NaN, NaN, NaN

20040125,001208,1660150,35.449500,-124.902000,NaN,14.017,32.695,39.470,  NaN,0.0, NaN, NaN, NaN, NaN, NaN,351.648,12.50,1018.72,88.40,NaN,248.0,NaN,6.6,NaN,325.4,NaN,7.0,NaN,NaN, NaN,NaN,168.0,NaN,NaN,NaN,2,1.3,000726,   NaN,84.1,     NaN,      NaN,NaN,0.4,NaN,14.020, NaN,NaN,NaN, NaN, NaN

20040125,001238,1660180,35.449333,-124.902000,NaN,14.018,32.695,39.471,  NaN,0.0, NaN, NaN, NaN, NaN, NaN,351.689,12.60,1018.69,88.60,NaN,231.0,NaN,7.0,NaN,312.2,NaN,7.2,NaN,NaN, NaN,NaN,173.0,NaN,NaN,NaN,2,1.4,000756,   NaN,84.7,     NaN,      NaN,NaN,0.2,NaN,14.021, NaN,NaN,NaN, NaN, NaN

20040125,001308,1660210,35.449167,-124.902000,NaN,14.021,32.696,39.475,  NaN,0.0, NaN, NaN, NaN, NaN, NaN,351.672,12.50,1018.52,88.10,NaN,235.0,NaN,6.6,NaN,315.0,NaN,7.3,NaN,NaN, NaN,NaN,186.0,NaN,NaN,NaN,2,1.2,000786,   NaN,86.0,     NaN,      NaN,NaN,0.2,NaN,14.024, NaN,NaN,NaN, NaN, NaN

20040125,001338,1660240,35.449000,-124.902000,NaN,14.022,32.696,39.476,  NaN,0.0, NaN, NaN, NaN, NaN, NaN,351.688,12.30,1018.58,86.90,NaN,244.0,NaN,5.5,NaN,327.2,NaN,6.1,NaN,NaN, NaN,NaN,185.0,NaN,NaN,NaN,2,1.3,000816,   NaN,84.6,     NaN,      NaN,NaN,0.3,NaN,14.026, NaN,NaN,NaN, NaN, NaN

20040125,001408,1660270,35.448833,-124.901833,NaN,14.022,32.697,39.477,  NaN,0.0, NaN, NaN, NaN, NaN, NaN,351.596,12.30,1018.63,87.40,NaN,249.0,NaN,6.1,NaN,324.9,NaN,6.1,NaN,NaN, NaN,NaN,171.0,NaN,NaN,NaN,2,1.2,000846,   NaN,82.3,     NaN,      NaN,NaN,0.2,NaN,14.025, NaN,NaN,NaN, NaN, NaN

20040125,001438,1660300,35.448667,-124.901833,NaN,14.023,32.697,39.478,  NaN,0.0, NaN, NaN, NaN, NaN, NaN,351.639,12.50,1018.87,88.30,NaN,244.0,NaN,7.3,NaN,314.6,NaN,6.8,NaN,NaN, NaN,NaN,160.0,NaN,NaN,NaN,2,1.2,000876,   NaN,80.3,     NaN,      NaN,NaN,0.3,NaN,14.026, NaN,NaN,NaN, NaN, NaN

20040125,001508,1660330,35.448667,-124.901833,NaN,14.025,32.696,39.479,  NaN,0.0, NaN, NaN, NaN, NaN, NaN,351.700,12.60,1018.74,88.30,NaN,259.0,NaN,8.1,NaN,323.8,NaN,7.4,NaN,NaN, NaN,NaN,164.0,NaN,NaN,NaN,2,1.1,000906,   NaN,77.2,     NaN,      NaN,NaN,0.2,NaN,14.028, NaN,NaN,NaN, NaN, NaN

20040125,001538,1660360,35.448500,-124.901833,NaN,14.027,32.697,39.482,  NaN,0.0, NaN, NaN, NaN, NaN, NaN,351.689,12.50,1018.62,86.40,NaN,264.0,NaN,7.0,NaN,328.8,NaN,7.1,NaN,NaN, NaN,NaN,168.0,NaN,NaN,NaN,2,1.1,000936,   NaN,75.8,     NaN,      NaN,NaN,0.3,NaN,14.030, NaN,NaN,NaN, NaN, NaN

20040125,001608,1660390,35.448333,-124.901833,NaN,14.029,32.696,39.482,  NaN,0.0, NaN, NaN, NaN, NaN, NaN,351.797,12.50,1018.64,86.10,NaN,264.0,NaN,8.3,NaN,337.1,NaN,8.4,NaN,NaN, NaN,NaN,161.0,NaN,NaN,NaN,2,1.1,000966,   NaN,75.9,     NaN,      NaN,NaN,0.1,NaN,14.032, NaN,NaN,NaN, NaN, NaN

20040125,001638,1660420,35.448167,-124.901667,NaN,14.028,32.698,39.483,  NaN,0.0, NaN, NaN, NaN, NaN, NaN,351.638,12.50,1018.63,85.20,NaN,262.0,NaN,7.0,NaN,333.7,NaN,7.1,NaN,NaN, NaN,NaN,177.0,NaN,NaN,NaN,2,1.4,000996,   NaN,79.4,     NaN,      NaN,NaN,0.2,NaN,14.031, NaN,NaN,NaN, NaN, NaN

20040125,001708,1660450,35.448000,-124.901667,NaN,14.025,32.697,39.480,  NaN,0.0, NaN, NaN, NaN, NaN, NaN,351.627,12.60,1018.59,86.40,NaN,258.0,NaN,6.6,NaN,330.6,NaN,6.7,NaN,NaN, NaN,NaN,179.0,NaN,NaN,NaN,2,1.4,001026,   NaN,82.4,     NaN,      NaN,NaN,0.3,NaN,14.028, NaN,NaN,NaN, NaN, NaN

20040125,001738,1660480,35.447833,-124.901667,NaN,14.028,32.697,39.483,  NaN,0.0, NaN, NaN, NaN, NaN, NaN,351.708,12.70,1018.64,86.50,NaN,249.0,NaN,7.5,NaN,331.1,NaN,7.1,NaN,NaN, NaN,NaN,175.0,NaN,NaN,NaN,2,1.4,001056,   NaN,84.6,     NaN,      NaN,NaN,0.3,NaN,14.031, NaN,NaN,NaN, NaN, NaN

20040125,001808,1660510,35.447667,-124.901667,NaN,14.028,32.697,39.483,  NaN,0.0, NaN, NaN, NaN, NaN, NaN,351.708,12.60,1018.77,85.20,NaN,240.0,NaN,7.5,NaN,322.8,NaN,8.4,NaN,NaN, NaN,NaN,176.0,NaN,NaN,NaN,2,1.2,001086,   NaN,83.5,     NaN,      NaN,NaN,0.3,NaN,14.031, NaN,NaN,NaN, NaN, NaN

20040125,001838,1660540,35.447500,-124.901667,NaN,14.028,32.697,39.484,  NaN,0.0, NaN, NaN, NaN, NaN, NaN,351.682,12.70,1018.57,85.70,NaN,250.0,NaN,8.9,NaN,333.7,NaN,8.2,NaN,NaN, NaN,NaN,177.0,NaN,NaN,NaN,2,1.4,001115,   NaN,83.7,     NaN,      NaN,NaN,0.2,NaN,14.032, NaN,NaN,NaN, NaN, NaN

20040125,001908,1660570,35.447333,-124.901500,NaN,14.029,32.698,39.484,  NaN,0.0, NaN, NaN, NaN, NaN, NaN,351.678,12.70,1018.83,85.30,NaN,249.0,NaN,8.6,NaN,325.2,NaN,9.0,NaN,NaN, NaN,NaN,166.0,NaN,NaN,NaN,2,1.3,001145,   NaN,85.9,     NaN,      NaN,NaN,0.3,NaN,14.032, NaN,NaN,NaN, NaN, NaN

20040125,001938,1660600,35.447167,-124.901500,NaN,14.030,32.697,39.485,  NaN,0.0, NaN, NaN, NaN, NaN, NaN,351.744,12.80,1018.59,86.60,NaN,242.0,NaN,9.3,NaN,327.1,NaN,9.5,NaN,NaN, NaN,NaN,151.0,NaN,NaN,NaN,2,1.3,001175,   NaN,83.0,     NaN,      NaN,NaN,0.2,NaN,14.033, NaN,NaN,NaN, NaN, NaN

20040125,002008,1660630,35.447000,-124.901500,NaN,14.029,32.698,39.485,  NaN,0.0, NaN, NaN, NaN, NaN, NaN,351.652,12.80,1018.50,86.20,NaN,254.0,NaN,9.7,NaN,332.0,NaN,9.7,NaN,NaN, NaN,NaN,158.0,NaN,NaN,NaN,2,1.4,001205,   NaN,81.9,     NaN,      NaN,NaN,0.4,NaN,14.033, NaN,NaN,NaN, NaN, NaN

20040125,002038,1660660,35.446833,-124.901333,NaN,14.028,32.698,39.484,  NaN,0.0, NaN, NaN, NaN, NaN, NaN,351.638,12.80,1018.54,86.20,NaN,258.0,NaN,9.5,NaN,343.5,NaN,10.1,NaN,NaN, NaN,NaN,171.0,NaN,NaN,NaN,2,1.1,001235,   NaN,79.0,     NaN,      NaN,NaN,0.2,NaN,14.031, NaN,NaN,NaN, NaN, NaN

20040125,002108,1660690,35.446667,-124.901333,NaN,14.026,32.698,39.483,  NaN,0.0, NaN, NaN, NaN, NaN, NaN,351.571,12.70,1018.60,86.10,NaN,260.0,NaN,8.1,NaN,340.1,NaN,7.8,NaN,NaN, NaN,NaN,166.0,NaN,NaN,NaN,2,1.3,001265,   NaN,80.4,     NaN,      NaN,NaN,0.3,NaN,14.030, NaN,NaN,NaN, NaN, NaN

20040125,002137,1660719,35.446500,-124.901333,NaN,14.024,32.698,39.480,  NaN,0.0, NaN, NaN, NaN, NaN, NaN,351.559,12.70,1018.52,86.60,NaN,262.0,NaN,9.1,NaN,329.9,NaN,9.0,NaN,NaN, NaN,NaN,164.0,NaN,NaN,NaN,2,1.7,001295,   NaN,83.2,     NaN,      NaN,NaN,0.3,NaN,14.028, NaN,NaN,NaN, NaN, NaN

20040125,002207,1660749,35.446333,-124.901333,NaN,14.027,32.698,39.482,  NaN,0.0, NaN, NaN, NaN, NaN, NaN,351.643,12.70,1018.61,86.70,NaN,262.0,NaN,8.8,NaN,335.7,NaN,8.3,NaN,NaN, NaN,NaN,175.0,NaN,NaN,NaN,2,1.7,001325,   NaN,85.7,     NaN,      NaN,NaN,0.4,NaN,14.030, NaN,NaN,NaN, NaN, NaN

20040125,002237,1660779,35.446167,-124.901167,NaN,14.029,32.698,39.484,  NaN,0.0, NaN, NaN, NaN, NaN, NaN,351.678,12.70,1018.58,87.10,NaN,244.0,NaN,7.4,NaN,326.7,NaN,7.6,NaN,NaN, NaN,NaN,170.0,NaN,NaN,NaN,2,1.4,001355,   NaN,84.4,     NaN,      NaN,NaN,0.1,NaN,14.032, NaN,NaN,NaN, NaN, NaN

20040125,002307,1660809,35.446000,-124.901167,NaN,14.029,32.699,39.486,  NaN,0.0, NaN, NaN, NaN, NaN, NaN,351.605,12.70,1018.56,88.40,NaN,259.0,NaN,6.7,NaN,334.4,NaN,7.6,NaN,NaN, NaN,NaN,186.0,NaN,NaN,NaN,2,1.0,001385,   NaN,80.9,     NaN,      NaN,NaN,0.3,NaN,14.032, NaN,NaN,NaN, NaN, NaN

20040125,002337,1660839,35.445833,-124.901167,NaN,14.034,32.698,39.489,  NaN,0.0, NaN, NaN, NaN, NaN, NaN,351.791,12.70,1018.69,88.00,NaN,254.0,NaN,7.3,NaN,331.9,NaN,8.2,NaN,NaN, NaN,NaN,181.0,NaN,NaN,NaN,2,1.1,001415,   NaN,76.8,     NaN,      NaN,NaN,0.2,NaN,14.038, NaN,NaN,NaN, NaN, NaN

20040125,002407,1660869,35.445667,-124.901167,NaN,14.043,32.698,39.497,  NaN,0.0, NaN, NaN, NaN, NaN, NaN,351.962,12.70,1018.50,87.90,NaN,266.0,NaN,7.8,NaN,331.2,NaN,8.0,NaN,NaN, NaN,NaN,181.0,NaN,NaN,NaN,2,1.2,001445,   NaN,71.5,     NaN,      NaN,NaN,0.3,NaN,14.046, NaN,NaN,NaN, NaN, NaN

20040125,002437,1660899,35.445500,-124.901000,NaN,14.048,32.698,39.503,  NaN,0.0, NaN, NaN, NaN, NaN, NaN,352.004,12.60,1018.72,86.20,NaN,265.0,NaN,7.7,NaN,335.6,NaN,7.6,NaN,NaN, NaN,NaN,167.0,NaN,NaN,NaN,2,1.3,001475,   NaN,73.4,     NaN,      NaN,NaN,0.2,NaN,14.052, NaN,NaN,NaN, NaN, NaN

20040125,002507,1660929,35.445333,-124.901000,NaN,14.043,32.700,39.500,  NaN,0.0, NaN, NaN, NaN, NaN, NaN,351.794,12.30,1018.71,85.30,NaN,255.0,NaN,6.6,NaN,329.1,NaN,7.0,NaN,NaN, NaN,NaN,162.0,NaN,NaN,NaN,2,1.5,001505,   NaN,75.1,     NaN,      NaN,NaN,0.4,NaN,14.046, NaN,NaN,NaN, NaN, NaN

20040125,002537,1660959,35.445167,-124.901000,NaN,14.041,32.699,39.497,  NaN,0.0, NaN, NaN, NaN, NaN, NaN,351.806,12.60,1018.60,85.30,NaN,254.0,NaN,7.5,NaN,327.8,NaN,7.8,NaN,NaN, NaN,NaN,169.0,NaN,NaN,NaN,2,1.2,001535,   NaN,76.2,     NaN,      NaN,NaN,0.2,NaN,14.044, NaN,NaN,NaN, NaN, NaN

20040125,002607,1660989,35.445000,-124.901000,NaN,14.041,32.699,39.497,  NaN,0.0, NaN, NaN, NaN, NaN, NaN,351.850,12.60,1018.66,85.10,NaN,260.0,NaN,7.0,NaN,328.2,NaN,7.0,NaN,NaN, NaN,NaN,180.0,NaN,NaN,NaN,2,1.2,001565,   NaN,76.0,     NaN,      NaN,NaN,0.3,NaN,14.045, NaN,NaN,NaN, NaN, NaN

20040125,002637,1661019,35.445000,-124.901000,NaN,14.041,32.699,39.497,  NaN,0.0, NaN, NaN, NaN, NaN, NaN,351.805,12.50,1018.66,84.80,NaN,255.0,NaN,6.6,NaN,334.9,NaN,6.7,NaN,NaN, NaN,NaN,176.0,NaN,NaN,NaN,2,1.1,001595,   NaN,79.5,     NaN,      NaN,NaN,0.3,NaN,14.044, NaN,NaN,NaN, NaN, NaN

20040125,002707,1661049,35.444667,-124.901000,NaN,14.041,32.699,39.497,  NaN,0.0, NaN, NaN, NaN, NaN, NaN,351.783,12.50,1018.59,84.60,NaN,258.0,NaN,6.3,NaN,329.0,NaN,6.6,NaN,NaN, NaN,NaN,174.0,NaN,NaN,NaN,2,1.2,001625,   NaN,80.5,     NaN,      NaN,NaN,0.4,NaN,14.044, NaN,NaN,NaN, NaN, NaN

20040125,002737,1661079,35.444667,-124.900833,NaN,14.041,32.700,39.497,  NaN,0.0, NaN, NaN, NaN, NaN, NaN,351.758,12.60,1018.63,85.10,NaN,257.0,NaN,6.6,NaN,335.3,NaN,6.7,NaN,NaN, NaN,NaN,177.0,NaN,NaN,NaN,2,1.2,001655,   NaN,83.9,     NaN,      NaN,NaN,0.2,NaN,14.044, NaN,NaN,NaN, NaN, NaN

20040125,002807,1661109,35.444500,-124.900833,NaN,14.043,32.699,39.498,  NaN,0.0, NaN, NaN, NaN, NaN, NaN,351.869,12.60,1018.70,83.50,NaN,241.0,NaN,7.5,NaN,318.9,NaN,7.3,NaN,NaN, NaN,NaN,171.0,NaN,NaN,NaN,2,1.2,001685,   NaN,84.1,     NaN,      NaN,NaN,0.2,NaN,14.046, NaN,NaN,NaN, NaN, NaN

20040125,002837,1661139,35.444333,-124.900833,NaN,14.043,32.699,39.498,  NaN,0.0, NaN, NaN, NaN, NaN, NaN,351.866,12.70,1018.68,84.40,NaN,247.0,NaN,7.3,NaN,325.3,NaN,7.9,NaN,NaN, NaN,NaN,171.0,NaN,NaN,NaN,2,1.2,001715,   NaN,85.0,     NaN,      NaN,NaN,0.2,NaN,14.046, NaN,NaN,NaN, NaN, NaN

20040125,002907,1661169,35.444167,-124.900833,NaN,14.043,32.699,39.498,  NaN,0.0, NaN, NaN, NaN, NaN, NaN,351.868,12.60,1018.68,82.50,NaN,236.0,NaN,7.4,NaN,326.2,NaN,7.8,NaN,NaN, NaN,NaN,171.0,NaN,NaN,NaN,2,1.4,001745,   NaN,87.0,     NaN,      NaN,NaN,0.2,NaN,14.046, NaN,NaN,NaN, NaN, NaN

20040125,002937,1661199,35.444000,-124.900833,NaN,14.040,32.700,39.497,  NaN,0.0, NaN, NaN, NaN, NaN, NaN,351.760,12.70,1018.58,83.30,NaN,231.0,NaN,7.6,NaN,312.3,NaN,8.1,NaN,NaN, NaN,NaN,179.0,NaN,NaN,NaN,2,1.4,001775,   NaN,88.3,     NaN,      NaN,NaN,0.3,NaN,14.044, NaN,NaN,NaN, NaN, NaN

20040125,003007,1661229,35.443833,-124.900833,NaN,14.041,32.699,39.497,  NaN,0.0, NaN, NaN, NaN, NaN, NaN,351.828,12.70,1018.77,82.60,NaN,238.0,NaN,7.8,NaN,326.7,NaN,8.7,NaN,NaN, NaN,NaN,173.0,NaN,NaN,NaN,2,1.5,001805,   NaN,89.2,     NaN,      NaN,NaN,0.3,NaN,14.044, NaN,NaN,NaN, NaN, NaN

20040125,003037,1661259,35.443667,-124.900833,NaN,14.043,32.700,39.499,  NaN,0.0, NaN, NaN, NaN, NaN, NaN,351.795,12.80,1018.56,83.00,NaN,240.0,NaN,8.0,NaN,323.1,NaN,8.5,NaN,NaN, NaN,NaN,167.0,NaN,NaN,NaN,2,1.3,001835,   NaN,88.8,     NaN,      NaN,NaN,0.2,NaN,14.046, NaN,NaN,NaN, NaN, NaN

20040125,003107,1661289,35.443500,-124.900833,NaN,14.043,32.700,39.499,  NaN,0.0, NaN, NaN, NaN, NaN, NaN,351.818,12.80,1018.53,83.50,NaN,244.0,NaN,7.8,NaN,322.7,NaN,7.8,NaN,NaN, NaN,NaN,161.0,NaN,NaN,NaN,2,1.3,001865,   NaN,86.0,     NaN,      NaN,NaN,0.2,NaN,14.046, NaN,NaN,NaN, NaN, NaN

20040125,003137,1661319,35.443333,-124.900833,NaN,14.043,32.700,39.500,  NaN,0.0, NaN, NaN, NaN, NaN, NaN,351.816,13.00,1018.31,84.10,NaN,250.0,NaN,6.8,NaN,326.5,NaN,6.8,NaN,NaN, NaN,NaN,165.0,NaN,NaN,NaN,2,1.2,001895,   NaN,81.6,     NaN,      NaN,NaN,0.1,NaN,14.047, NaN,NaN,NaN, NaN, NaN

20040125,003207,1661349,35.443167,-124.900667,NaN,14.042,32.699,39.498,  NaN,0.0, NaN, NaN, NaN, NaN, NaN,351.824,12.80,1018.34,83.40,NaN,244.0,NaN,8.1,NaN,319.8,NaN,8.0,NaN,NaN, NaN,NaN,167.0,NaN,NaN,NaN,2,1.3,001925,   NaN,80.7,     NaN,      NaN,NaN,0.2,NaN,14.045, NaN,NaN,NaN, NaN, NaN

20040125,003237,1661379,35.443000,-124.900667,NaN,14.041,32.700,39.498,  NaN,0.0, NaN, NaN, NaN, NaN, NaN,351.756,12.80,1018.51,84.10,NaN,259.0,NaN,6.8,NaN,336.4,NaN,7.4,NaN,NaN, NaN,NaN,157.0,NaN,NaN,NaN,2,1.3,001955,   NaN,77.7,     NaN,      NaN,NaN,0.2,NaN,14.044, NaN,NaN,NaN, NaN, NaN

20040125,003307,1661409,35.442833,-124.900667,NaN,14.040,32.700,39.497,  NaN,0.0, NaN, NaN, NaN, NaN, NaN,351.760,13.00,1018.71,84.20,NaN,246.0,NaN,9.3,NaN,321.1,NaN,8.6,NaN,NaN, NaN,NaN,164.0,NaN,NaN,NaN,2,1.3,001985,   NaN,77.2,     NaN,      NaN,NaN,0.2,NaN,14.043, NaN,NaN,NaN, NaN, NaN

20040125,003337,1661439,35.442667,-124.900667,NaN,14.041,32.699,39.497,  NaN,0.0, NaN, NaN, NaN, NaN, NaN,351.826,12.80,1018.31,83.30,NaN,358.0,NaN,8.5,NaN,331.7,NaN,8.4,NaN,NaN, NaN,NaN,181.0,NaN,NaN,NaN,2,1.5,002015,   NaN,75.7,     NaN,      NaN,NaN,0.1,NaN,14.044, NaN,NaN,NaN, NaN, NaN

20040125,003407,1661469,35.442500,-124.900667,NaN,14.042,32.699,39.498,  NaN,0.0, NaN, NaN, NaN, NaN, NaN,351.868,12.80,1018.45,83.70,NaN,251.0,NaN,7.5,NaN,319.0,NaN,7.7,NaN,NaN, NaN,NaN,171.0,NaN,NaN,NaN,2,1.5,002045,   NaN,75.4,     NaN,      NaN,NaN,0.2,NaN,14.046, NaN,NaN,NaN, NaN, NaN

20040125,003437,1661499,35.442333,-124.900500,NaN,14.047,32.699,39.502,  NaN,0.0, NaN, NaN, NaN, NaN, NaN,351.943,12.80,1018.37,83.90,NaN,257.0,NaN,8.5,NaN,325.6,NaN,8.9,NaN,NaN, NaN,NaN,181.0,NaN,NaN,NaN,2,1.4,002075,   NaN,77.0,     NaN,      NaN,NaN,0.2,NaN,14.050, NaN,NaN,NaN, NaN, NaN

20040125,003507,1661529,35.442167,-124.900500,NaN,14.042,32.700,39.499,  NaN,0.0, NaN, NaN, NaN, NaN, NaN,351.798,12.80,1018.60,83.80,NaN,244.0,NaN,6.5,NaN,317.1,NaN,6.8,NaN,NaN, NaN,NaN,174.0,NaN,NaN,NaN,2,1.3,002105,   NaN,79.6,     NaN,      NaN,NaN,0.1,NaN,14.046, NaN,NaN,NaN, NaN, NaN

20040125,003537,1661559,35.442000,-124.900500,NaN,14.036,32.699,39.492,  NaN,0.0, NaN, NaN, NaN, NaN, NaN,351.713,13.00,1018.68,84.80,NaN,255.0,NaN,7.3,NaN,333.6,NaN,8.6,NaN,NaN, NaN,NaN,174.0,NaN,NaN,NaN,2,1.4,002135,   NaN,82.4,     NaN,      NaN,NaN,0.1,NaN,14.039, NaN,NaN,NaN, NaN, NaN

20040125,003607,1661589,35.441833,-124.900500,NaN,14.032,32.700,39.490,  NaN,0.0, NaN, NaN, NaN, NaN, NaN,351.613,12.80,1018.50,83.40,NaN,244.0,NaN,8.5,NaN,324.2,NaN,8.8,NaN,NaN, NaN,NaN,178.0,NaN,NaN,NaN,2,1.4,002165,   NaN,88.7,     NaN,      NaN,NaN,0.2,NaN,14.036, NaN,NaN,NaN, NaN, NaN

20040125,003637,1661619,35.441667,-124.900500,NaN,14.031,32.698,39.487,  NaN,0.0, NaN, NaN, NaN, NaN, NaN,351.689,12.80,1018.66,83.90,NaN,236.0,NaN,7.7,NaN,324.2,NaN,8.8,NaN,NaN, NaN,NaN,177.0,NaN,NaN,NaN,2,1.2,002195,   NaN,89.6,     NaN,      NaN,NaN,0.1,NaN,14.035, NaN,NaN,NaN, NaN, NaN

20040125,003707,1661649,35.441500,-124.900333,NaN,14.032,32.698,39.488,  NaN,0.0, NaN, NaN, NaN, NaN, NaN,351.731,12.80,1018.62,85.10,NaN,231.0,NaN,7.7,NaN,314.1,NaN,7.9,NaN,NaN, NaN,NaN,165.0,NaN,NaN,NaN,2,1.2,002225,   NaN,90.6,     NaN,      NaN,NaN,0.1,NaN,14.036, NaN,NaN,NaN, NaN, NaN

20040125,003737,1661679,35.441333,-124.900333,NaN,14.034,32.697,39.489,  NaN,0.0, NaN, NaN, NaN, NaN, NaN,351.793,13.00,1018.60,85.20,NaN,239.0,NaN,8.4,NaN,321.4,NaN,7.5,NaN,NaN, NaN,NaN,172.0,NaN,NaN,NaN,2,1.4,002255,   NaN,86.4,     NaN,      NaN,NaN,0.2,NaN,14.037, NaN,NaN,NaN, NaN, NaN

20040125,003807,1661709,35.441333,-124.900333,NaN,14.031,32.698,39.486,  NaN,0.0, NaN, NaN, NaN, NaN, NaN,351.714,12.80,1018.72,84.60,NaN,245.0,NaN,8.2,NaN,323.0,NaN,8.8,NaN,NaN, NaN,NaN,168.0,NaN,NaN,NaN,2,1.3,002285,   NaN,81.0,     NaN,      NaN,NaN,0.2,NaN,14.034, NaN,NaN,NaN, NaN, NaN

20040125,003837,1661739,35.441167,-124.900333,NaN,14.027,32.699,39.484,  NaN,0.0, NaN, NaN, NaN, NaN, NaN,351.568,12.80,1018.66,85.10,NaN,255.0,NaN,7.8,NaN,329.0,NaN,7.7,NaN,NaN, NaN,NaN,150.0,NaN,NaN,NaN,2,1.5,002315,   NaN,75.6,     NaN,      NaN,NaN,0.2,NaN,14.031, NaN,NaN,NaN, NaN, NaN

20040125,003907,1661769,35.441000,-124.900167,NaN,14.025,32.699,39.482,  NaN,0.0, NaN, NaN, NaN, NaN, NaN,351.534,12.80,1018.69,85.50,NaN,269.0,NaN,7.7,NaN,333.2,NaN,8.0,NaN,NaN, NaN,NaN,149.0,NaN,NaN,NaN,2,1.5,002345,   NaN,72.1,     NaN,      NaN,NaN,0.3,NaN,14.028, NaN,NaN,NaN, NaN, NaN

20040125,003937,1661799,35.440833,-124.900167,NaN,14.029,32.698,39.485,  NaN,0.0, NaN, NaN, NaN, NaN, NaN,351.653,12.80,1018.69,85.50,NaN,254.0,NaN,7.6,NaN,319.0,NaN,7.7,NaN,NaN, NaN,NaN,148.0,NaN,NaN,NaN,2,1.5,002375,   NaN,71.4,     NaN,      NaN,NaN,0.1,NaN,14.032, NaN,NaN,NaN, NaN, NaN

20040125,004007,1661829,35.440667,-124.900000,NaN,14.026,32.699,39.483,  NaN,0.0, NaN, NaN, NaN, NaN, NaN,351.505,12.80,1018.59,85.60,NaN,262.0,NaN,8.0,NaN,323.9,NaN,8.4,NaN,NaN, NaN,NaN,147.0,NaN,NaN,NaN,2,1.4,002405,   NaN,69.6,     NaN,      NaN,NaN,0.2,NaN,14.029, NaN,NaN,NaN, NaN, NaN
